Weather Service Report


846 
ASUS41 KRLX 251610
RWRRLX
West Virginia Regional Weather Roundup
National Weather Service Charleston WV
1200 PM EDT TUE JUL 25 2017

Note: "fair" indicates few or no clouds below 12,000 feet with no
significant weather and/or obstructions to visibility.

WVZ003-251700-
Northern Panhandle of West Virginia
  
CITY           SKY/WX    TMP DP  RH WIND       PRES   REMARKS
WHEELING       CLOUDY    66  56  70 N8        30.21R                  
$$

WVZ009-251700-
Northwest West Virginia
  
CITY           SKY/WX    TMP DP  RH WIND       PRES   REMARKS
PARKERSBURG    CLOUDY    68  56  65 N6        30.24R                  
$$

WVZ006-251700-
Western West Virginia
  
CITY           SKY/WX    TMP DP  RH WIND       PRES   REMARKS
HUNTINGTON     SUNNY     75  58  55 N6        30.18F                  
$$

WVZ015-251700-
West Central West Virginia
  
CITY           SKY/WX    TMP DP  RH WIND       PRES   REMARKS
CHARLESTON     MOSUNNY   75  57  53 NW5       30.19S                  
$$

WVZ022-031-251700-
North Central West Virginia
  
CITY           SKY/WX    TMP DP  RH WIND       PRES   REMARKS
CLARKSBURG     CLOUDY    67  55  65 N7        30.20S                  
MORGANTOWN     CLOUDY    66  54  65 N3        30.21S                  
$$

WVZ025-035-042-045-251700-
Southern West Virginia
  
CITY           SKY/WX    TMP DP  RH WIND       PRES   REMARKS
BECKLEY        PTSUNNY   73  60  63 NW9       30.22S                  
LOGAN          PTSUNNY   73  63  68 CALM      30.20S                  
BLUEFIELD      MOSUNNY   73  58  59 W10       30.24S                  
LEWISBURG      SUNNY     74  56  54 W7        30.20R                  
$$

WVZ047-251700-
Northern Mountains of West Virginia
  
CITY           SKY/WX    TMP DP  RH WIND       PRES   REMARKS
ELKINS         MOSUNNY   69  54  58 N10       30.22S                  
$$

WVZ052-251700-
Eastern Panhandle of West Virginia
  
CITY           SKY/WX    TMP DP  RH WIND       PRES   REMARKS
MARTINSBURG    CLOUDY    73  58  59 NW12      30.13R                  
PETERSBURG     SUNNY     75  56  51 N7        30.16S                  
$$
  

Return to Home page


Western Regional Climate Center, wrcc@dri.edu